星链-4475 (STARLINK-4475 )

导读

STARLINK-4475是美国SpaceX公司星链星座的卫星,于北京时间2022年8月19日发射入轨,运行于近地轨道。它是星链全球宽带互联网组网的组成部分,依托低轨布局,可降低网络传输延迟,为偏远欠发达地区提供高速互联网接入,助力填补全球数字鸿沟,是SpaceX构建大规模卫星星座的重要单元。

基本信息
目录编号:
53545
目录名称:
STARLINK-4475
国际标识:
2022-101U
轨道中心:
EARTH
卫星名称:
星链-4475
卫星全名:
星链-4475 (STARLINK-4475 )
卫星状态:
在轨 (已飞行1398 天)
发射日期:
2022-08-19 UTC
国别 :
美国 (US)
星等 :
--
轨道信息
数据来源 国际轨道数据 AOE轨道数据
星历时间 2026-06-17T12:36:37+0800
5小时前
查看轨道信息
2026-06-11T12:00:00+0800
6天前
查看轨道信息
半长轴 6917.853km 6917.898km
偏心率 0.0001313 0.0001829
轨道倾角 53.161° 53.161°
近地点辐角 85.475° 88.925°
升交点赤经 337.338° 4.427°
平近点角 274.639° 284.347°
近地点 538.807km 538.495km
远地点 540.625km 541.027km
周期 95.437分钟 95.438分钟
每日圈数 15.088492 15.088343
详细信息
固有亮度:
5
最大亮度:
2.5
卫星平台:
Starlink v1.5
覆盖范围:
全球
运营商:
太空探索技术公司
运营商所在国:
美国
制造商(研发单位):
太空探索技术公司
制造商所在国:
美国
使用方式:
暂无
卫星简介
星链(Starlink)计划是由太空探索技术公司(SpaceX)提出的一个巨型低轨卫星互联网星座项目,计划在2019年至2024年间在太空搭建由约1.2万颗卫星组成的“星链”网络,其中1584颗将部署在地球上空550千米处的近地轨道,并从2020年开始工作。该卫星仍在工作。
2D轨道图
3D轨道图
轨道高度分析图
轨道倾角分析图
轨道综合分析图
查看轨道综合分析图